Home > Weather > Savannah > Past weeks

Flag for USA Past Weather in Savannah, Georgia, USA — Yesterday and Last 2 Weeks

Now
82 °F

Clear.


Feels Like: 93 °F
Forecast: 80 / 94 °F
Wind: 9 mph from South

Location: Hunter U. S. Army Airfield

Current Time: Jun 25, 2016 at 1:15:54 AM

Latest Report: Jun 24, 2016 at 11:58 PM


Visibility: 10 mi

Pressure: 30.02 "Hg

Humidity: 93%

Dew Point: 80 °F

Location of SavannahLocation

Past Weather in Savannah — Graph

°F

Savannah Temperature Yesterday

Maximum temperature yesterday: 97 °F (at 3:58 PM)
Minimum temperature yesterday: 75 °F (at 6:58 AM)
Average temperature yesterday: 86 °F

High & Low Weather Summary for the Past Weeks

 TemperatureHumidityPressure
High98 °F (Jun 17, 3:58 PM)100% (Jun 10, 1:58 AM)30.29 "Hg (Jun 10, 1:58 AM)
Low65 °F (Jun 21, 6:58 AM)43% (Jun 23, 4:58 PM)29.69 "Hg (Jun 17, 4:58 PM)
Average81 °F78%30.02 "Hg
* Reported Jun 9 11:58 PM — Jun 24 11:58 PM, Savannah, Weather by CustomWeather, © 2016

Note: Actual official high and low records may vary slightly from our data, if they occured in-between our weather recording intervals... More about our weather records

Advertising

Savannah Weather History for the Previous 24 Hours

Scroll right to see more
 ConditionsComfort  
Time TempWeatherWind HumidityBarometerVisibility
11:58 PM
Fri, Jun 24
82 °FClear.9 mph93%30.02 "Hg10 mi
10:58 PM83 °FClear.8 mph86%30.02 "Hg10 mi
9:58 PM83 °FClear.8 mph86%30.02 "Hg10 mi
7:58 PM87 °FSunny.9 mph74%29.99 "Hg10 mi
6:58 PM94 °FSunny.7 mph45%29.97 "Hg10 mi
5:58 PM96 °FSunny.9 mph43%29.97 "Hg10 mi
4:58 PM96 °FPassing clouds.9 mph43%29.99 "Hg9 mi
3:58 PM97 °FPassing clouds.7 mph44%30.01 "Hg10 mi
2:58 PM96 °FPassing clouds.10 mph47%30.02 "Hg10 mi
1:58 PM95 °FScattered clouds.15 mph47%30.02 "Hg10 mi
12:58 PM94 °FScattered clouds.13 mph50%30.03 "Hg10 mi
11:58 AM92 °FPassing clouds.13 mph55%30.05 "Hg10 mi
10:58 AM90 °FSunny.10 mph56%30.06 "Hg10 mi
9:58 AM86 °FSunny.9 mph66%30.06 "Hg8 mi
8:58 AM83 °FSunny.8 mph72%30.07 "Hg10 mi
7:58 AM79 °FSunny.8 mph80%30.07 "Hg10 mi
6:58 AM75 °FClear.3 mph88%30.05 "Hg10 mi
5:58 AM76 °FClear.6 mph85%30.04 "Hg10 mi
4:58 AM76 °FClear.5 mph83%30.03 "Hg10 mi
3:58 AM78 °FClear.5 mph82%30.02 "Hg10 mi
2:58 AM79 °FClear.6 mph83%30.03 "Hg10 mi
1:58 AM80 °FClear.6 mph80%30.05 "Hg10 mi
Weather by CustomWeather, © 2016

See weather overviewHow to use our weather pages